Regional Weather Roundup
Issued by NWS

Home | Current Version | Previous Version | Text Only | Print | Product List | Glossary On
Versions: 1 2 3 4 5 6 7 8 9 10 11 12 13 14 15 16 17 18 19 20 21 22 23 24 25 26 27 28 29 30 31 32 33 34 35 36 37 38 39 40 41 42 43 44 45 46 47 48 49 50
000
ASUS45 KBOU 030307
RWRCO

WEATHER ROUNDUP FOR COLORADO
NATIONAL WEATHER SERVICE DENVER/BOULDER CO
900 PM MDT TUE JUN 02 2015

NOTE: "FAIR" INDICATES FEW OR NO CLOUDS BELOW 12000 FEET WITH NO
SIGNIFICANT WEATHER AND/OR OBSTRUCTIONS TO VISIBILITY.

COZ001>005-013-030-031-030400-
...NORTHWEST COLORADO...

CITY           SKY/WX    TMP DP  RH WIND       PRES   REMARKS
CRAIG          CLEAR     56  37  49 VRB3      30.00R
HAYDEN         CLEAR     64  34  32 S5        30.03R
MEEKER         CLEAR     60  39  45 E5        30.01S
MOUNT WERNER   NOT AVBL
STEAMBOAT SPGS CLEAR     63  31  30 CALM      30.05S
WALDEN         CLEAR     55  27  33 SW6       30.14S
$$

COZ006>008-011-030400-
...WEST CENTRAL VALLEYS...

CITY           SKY/WX    TMP DP  RH WIND       PRES   REMARKS
GRAND JUNCTION CLEAR     73  19  13 N7        29.90R
MONTROSE       CLEAR     73  23  15 S8        30.01S
EAGLE          PTCLDY    75  30  19 SW9       30.05R
RIFLE          CLEAR     70  31  23 CALM      29.95R
DELTA          CLEAR     77  19  11 S7        29.95R
NUCLA          CLEAR     72  18  13 SW5       30.05R
$$

COZ017>023-064>068-030400-
...SOUTHWEST COLORADO...

CITY           SKY/WX    TMP DP  RH WIND       PRES   REMARKS
DURANGO        CLEAR     68  23  18 CALM      30.08F
CORTEZ         CLEAR     62  35  36 CALM      30.03S
PAGOSA SPRINGS CLEAR     57  31  38 CALM      30.18S
TELLURIDE      PTCLDY    62  19  18 CALM      30.27S
WOLF CREEK PAS NOT AVBL
$$

COZ009-010-012-014-032>034-037-058>063-030400-
...CENTRAL COLORADO...

CITY           SKY/WX    TMP DP  RH WIND       PRES   REMARKS
ASPEN          PTCLDY    55  31  39 S8        30.14R
BUENA VISTA    PTCLDY    60  21  22 W16       30.12S
COPPER MTN     PTCLDY    48  14  25 W12       30.44S
BERTHOUD PASS  FAIR      41  34  75 W15G23    30.48S
COTTONWOOD PAS NOT AVBL
GUNNISON       CLEAR     64  18  16 W3        30.17R
KREMMLING      CLEAR     59  28  31 CALM      30.11R
LEADVILLE      PTCLDY    51  20  29 NE5       30.28R
MONARCH PASS   CLEAR     46  18  31 W23       30.54S
SALIDA         PTCLDY    67  21  17 W9        30.17R
SUNLIGHT       PTCLDY    52  18  25 CALM      30.36S
WILKERSON PASS PTCLDY    54   5  14 NW8G20    30.40S
$$

COZ069>075-030400-
...SAN LUIS VALLEY/SANGRE DE CRISTO MOUNTAINS...

CITY           SKY/WX    TMP DP  RH WIND       PRES   REMARKS
ALAMOSA        CLEAR     62  23  22 W10       30.12R
LA VETA PASS   CLEAR    N/A N/A N/A MISG      30.31S
SAGUACHE       CLEAR     63  30  29 NW10      30.14R
$$

COZ035-036-038>040-030400-
...NORTHERN COLORADO FRONT RANGE...

CITY           SKY/WX    TMP DP  RH WIND       PRES   REMARKS
DENVER INTL AP PTCLDY    69  46  43 NE8       29.88S
DMNS CITY PARK   N/A     74  40  28 N7        29.89R
AURORA         PTCLDY    66  49  54 E1        29.90S
FRONT RANGE AP PTCLDY    68  48  49 E8        29.89F
ERIE MUNI ARPT CLEAR     68  46  44 CALM      29.88R
BOULDER MUN AP CLEAR     72  43  35 W6        29.90R
CENTENNIAL     CLEAR     73  43  33 CALM      29.91R
BROOMFIELD     PTCLDY    77  41  27 CALM      29.92R
FORT COLLINS   CLEAR     73  43  33 W7        29.87R
LONGMONT       CLEAR     65  51  60 CALM      29.90R
$$

COZ041-046-047-076>085-087-088-030400-
...PIKES PEAK/PALMER DIVIDE AND SOUTHERN FOOTHILLS...

CITY           SKY/WX    TMP DP  RH WIND       PRES   REMARKS
COLO. SPRINGS  PTCLDY    74  43  32 S3        29.97R
A. F. ACADEMY  CLEAR     71  40  31 SE6G16    29.99R
ELLICOTT       CLEAR    N/A N/A N/A SE8       29.95S
FALCON         CLEAR     64  44  48 CALM      30.04R
FORT CARSON    NOT AVBL
LIMON          CLEAR     64  53  67 SE6       29.91R
MONUMENT HILL  CLEAR     61  41  48 E7        30.04R
TRINIDAD       CLEAR     67  43  41 W10       29.94R
$$

COZ042>045-048>051-090-091-030400-
...NORTHEAST COLORADO...

CITY           SKY/WX    TMP DP  RH WIND       PRES   REMARKS
GREELEY ARPT   CLEAR     72  48  43 S6        29.85R
AKRON          CLEAR     71  58  63 SE10      29.85S
BURLINGTON     CLEAR     73  55  53 S9        29.83S
WRAY           CLEAR     76  59  56 E6        29.80R
STERLING       CLEAR     73  55  53 SE3       29.79R
HOLYOKE        NOT AVBL
FORT MORGAN    CLEAR     75  46  35 SE10      29.84R
$$

COZ086-089-092>099-030400-
...SOUTHEAST COLORADO...

CITY           SKY/WX    TMP DP  RH WIND       PRES   REMARKS
PUEBLO         CLEAR     73  50  44 E7        29.82S
LA JUNTA       CLEAR     76  52  43 SE5       29.80F
LAMAR          CLEAR     76  59  55 SE14      29.77S
SPRINGFIELD      N/A     73  55  53 S16       29.87R
$$



USA.gov is the U.S. government's official web portal to all federal, state and local government web resources and services.